• en Belgique
  • Liste des pays
  • À 7 jours
  • Température de l'eau
  • Carte satellitaire
  • Carte météo
  • Widgets météo
  • user-avatar
    Se connecter

    Météo par heure à Сhiang Mai

    Ce jour, 23 Juillet, Lundi

    Heure Température Précipitation Vent Pression Humidité
    00:00 +26°C° 0 mm 1 m/s 728 mmHg 91%
    01:00 +26°C° 0 mm 1 m/s 728 mmHg 92%
    02:00 +26°C° 0 mm 1 m/s 728 mmHg 92%
    03:00 +23°C° 0 mm 0 m/s 727 mmHg 93%
    04:00 +23°C° 0 mm 0 m/s 727 mmHg 93%
    05:00 +24°C° 0 mm 0 m/s 727 mmHg 92%
    06:00 +24°C° 0 mm 0 m/s 727 mmHg 90%
    07:00 +24°C° 0 mm 0 m/s 727 mmHg 89%
    08:00 +28°C° 0 mm 1 m/s 728 mmHg 80%
    09:00 +30°C° 0 mm 1 m/s 728 mmHg 71%
    10:00 +33°C° 0 mm 1 m/s 728 mmHg 62%
    11:00 +33°C° 0,2 mm 1 m/s 727 mmHg 60%
    12:00 +34°C° 0,2 mm 1 m/s 727 mmHg 58%
    13:00 +36°C° 0,2 mm 2 m/s 726 mmHg 56%
    14:00 +36°C° 0,5 mm 2 m/s 726 mmHg 57%
    15:00 +36°C° 0,5 mm 2 m/s 725 mmHg 58%
    16:00 +36°C° 0,5 mm 2 m/s 725 mmHg 59%
    17:00 +34°C° 0,5 mm 2 m/s 725 mmHg 67%
    18:00 +31°C° 0,5 mm 2 m/s 725 mmHg 75%
    19:00 +29°C° 0,5 mm 1 m/s 725 mmHg 83%
    20:00 +28°C° 0 mm 1 m/s 726 mmHg 85%
    21:00 +28°C° 0 mm 1 m/s 726 mmHg 87%
    22:00 +27°C° 0 mm 1 m/s 727 mmHg 89%
    23:00 +27°C° 0 mm 1 m/s 727 mmHg 90%

    Demain, 24 Juillet, Mardi

    Heure Température Précipitation Vent Pression Humidité
    00:00 +26°C° 0 mm 1 m/s 727 mmHg 90%
    01:00 +26°C° 0 mm 1 m/s 727 mmHg 91%
    02:00 +26°C° 0 mm 1 m/s 727 mmHg 91%
    03:00 +26°C° 0 mm 1 m/s 726 mmHg 91%
    04:00 +24°C° 0 mm 0 m/s 726 mmHg 91%
    05:00 +24°C° 0 mm 0 m/s 726 mmHg 91%
    06:00 +24°C° 0 mm 0 m/s 726 mmHg 90%
    07:00 +24°C° 0 mm 0 m/s 727 mmHg 90%
    08:00 +25°C° 0,2 mm 0 m/s 727 mmHg 87%
    09:00 +28°C° 0,2 mm 1 m/s 727 mmHg 85%
    10:00 +29°C° 0,2 mm 1 m/s 728 mmHg 82%
    11:00 +29°C° 0,3 mm 1 m/s 727 mmHg 81%
    12:00 +30°C° 0,3 mm 1 m/s 727 mmHg 81%
    13:00 +30°C° 0,3 mm 1 m/s 727 mmHg 80%
    14:00 +30°C° 0,3 mm 1 m/s 726 mmHg 78%
    15:00 +29°C° 0,3 mm 0 m/s 726 mmHg 76%
    16:00 +29°C° 0,3 mm 0 m/s 725 mmHg 74%
    17:00 +30°C° 0,7 mm 1 m/s 725 mmHg 79%
    18:00 +29°C° 0,7 mm 1 m/s 725 mmHg 84%
    19:00 +28°C° 0,7 mm 1 m/s 726 mmHg 89%
    20:00 +27°C° 1,3 mm 1 m/s 726 mmHg 91%
    21:00 +27°C° 1,3 mm 1 m/s 727 mmHg 93%
    22:00 +26°C° 1,3 mm 1 m/s 727 mmHg 95%
    23:00 +26°C° 2,4 mm 1 m/s 727 mmHg 96%

    Après-demain, 25 Juillet, Mercredi

    Heure Température Précipitation Vent Pression Humidité
    00:00 +26°C° 2,4 mm 1 m/s 727 mmHg 96%
    01:00 +26°C° 2,4 mm 1 m/s 726 mmHg 97%
    02:00 +26°C° 2,1 mm 1 m/s 726 mmHg 97%
    03:00 +26°C° 2,1 mm 1 m/s 726 mmHg 97%
    04:00 +26°C° 2,1 mm 1 m/s 725 mmHg 97%
    05:00 +26°C° 0,6 mm 1 m/s 725 mmHg 97%
    06:00 +26°C° 0,6 mm 1 m/s 726 mmHg 96%
    07:00 +26°C° 0,6 mm 1 m/s 726 mmHg 96%
    08:00 +27°C° 0,2 mm 1 m/s 726 mmHg 93%
    09:00 +27°C° 0,2 mm 1 m/s 726 mmHg 89%
    10:00 +28°C° 0,2 mm 1 m/s 726 mmHg 86%
    11:00 +28°C° 0,4 mm 1 m/s 726 mmHg 85%
    12:00 +28°C° 0,4 mm 1 m/s 726 mmHg 85%
    13:00 +29°C° 0,4 mm 1 m/s 725 mmHg 84%
    14:00 +28°C° 0,8 mm 1 m/s 725 mmHg 86%
    15:00 +28°C° 0,8 mm 1 m/s 724 mmHg 87%
    16:00 +28°C° 0,8 mm 1 m/s 724 mmHg 88%
    17:00 +28°C° 0,4 mm 1 m/s 724 mmHg 90%
    18:00 +27°C° 0,4 mm 1 m/s 724 mmHg 91%
    19:00 +27°C° 0,4 mm 1 m/s 724 mmHg 93%
    20:00 +26°C° 0,3 mm 1 m/s 725 mmHg 94%
    21:00 +26°C° 0,3 mm 1 m/s 725 mmHg 95%
    22:00 +26°C° 0,3 mm 1 m/s 726 mmHg 96%
    23:00 +26°C° 0,4 mm 1 m/s 726 mmHg 97%

    26 Juillet, Jeudi

    Heure Température Précipitation Vent Pression Humidité
    00:00 +26°C° 0,4 mm 1 m/s 725 mmHg 97%
    01:00 +25°C° 0,4 mm 1 m/s 725 mmHg 97%
    02:00 +25°C° 0,6 mm 1 m/s 725 mmHg 97%
    03:00 +25°C° 0,6 mm 1 m/s 724 mmHg 97%
    04:00 +25°C° 0,6 mm 1 m/s 724 mmHg 97%
    05:00 +25°C° 0,4 mm 1 m/s 724 mmHg 97%
    06:00 +25°C° 0,4 mm 1 m/s 725 mmHg 97%
    07:00 +25°C° 0,4 mm 1 m/s 725 mmHg 97%
    08:00 +26°C° 1 mm 1 m/s 725 mmHg 94%
    09:00 +26°C° 1 mm 1 m/s 726 mmHg 92%
    10:00 +27°C° 1 mm 1 m/s 726 mmHg 90%
    11:00 +27°C° 1,2 mm 1 m/s 725 mmHg 90%
    12:00 +27°C° 1,2 mm 2 m/s 725 mmHg 90%
    13:00 +27°C° 1,2 mm 2 m/s 725 mmHg 90%
    14:00 +27°C° 0,8 mm 2 m/s 724 mmHg 89%
    15:00 +27°C° 0,8 mm 2 m/s 724 mmHg 88%
    16:00 +27°C° 0,8 mm 2 m/s 724 mmHg 87%
    17:00 +26°C° 0,6 mm 2 m/s 724 mmHg 89%
    18:00 +26°C° 0,6 mm 2 m/s 724 mmHg 91%
    19:00 +26°C° 0,6 mm 1 m/s 725 mmHg 93%
    20:00 +25°C° 0,6 mm 1 m/s 725 mmHg 94%
    21:00 +25°C° 0,6 mm 1 m/s 725 mmHg 95%
    22:00 +25°C° 0,6 mm 1 m/s 726 mmHg 95%
    23:00 +25°C° 3,6 mm 1 m/s 726 mmHg 96%

    27 Juillet, Vendredi

    Heure Température Précipitation Vent Pression Humidité
    00:00 +25°C° 3,6 mm 1 m/s 725 mmHg 97%
    01:00 +25°C° 3,6 mm 1 m/s 725 mmHg 98%
    02:00 +25°C° 4,5 mm 1 m/s 724 mmHg 98%
    03:00 +24°C° 4,5 mm 1 m/s 724 mmHg 98%
    04:00 +24°C° 4,5 mm 1 m/s 724 mmHg 98%
    05:00 +24°C° 3,8 mm 1 m/s 724 mmHg 98%
    06:00 +24°C° 3,8 mm 1 m/s 724 mmHg 98%
    07:00 +24°C° 3,8 mm 1 m/s 725 mmHg 98%
    08:00 +24°C° 4,8 mm 1 m/s 725 mmHg 98%
    09:00 +25°C° 4,8 mm 1 m/s 725 mmHg 98%
    10:00 +25°C° 4,8 mm 1 m/s 726 mmHg 98%
    11:00 +25°C° 5 mm 1 m/s 726 mmHg 98%
    12:00 +25°C° 5 mm 1 m/s 725 mmHg 97%
    13:00 +25°C° 5 mm 1 m/s 725 mmHg 97%
    14:00 +25°C° 4 mm 1 m/s 725 mmHg 97%
    15:00 +25°C° 4 mm 1 m/s 725 mmHg 97%
    16:00 +25°C° 4 mm 1 m/s 724 mmHg 97%
    17:00 +25°C° 2,3 mm 1 m/s 725 mmHg 97%
    18:00 +25°C° 2,3 mm 1 m/s 725 mmHg 98%
    19:00 +25°C° 2,3 mm 1 m/s 725 mmHg 98%
    20:00 +25°C° 1,8 mm 1 m/s 726 mmHg 98%
    21:00 +25°C° 1,8 mm 1 m/s 726 mmHg 98%
    22:00 +25°C° 1,8 mm 1 m/s 727 mmHg 98%
    23:00 +25°C° 1,7 mm 1 m/s 727 mmHg 98%

    28 Juillet, Samedi

    Heure Température Précipitation Vent Pression Humidité
    00:00 +25°C° 1,7 mm 1 m/s 726 mmHg 98%
    01:00 +24°C° 1,7 mm 1 m/s 726 mmHg 98%
    02:00 +24°C° 1,1 mm 1 m/s 726 mmHg 98%
    03:00 +24°C° 1,1 mm 1 m/s 726 mmHg 98%
    04:00 +24°C° 1,1 mm 1 m/s 725 mmHg 98%
    05:00 +24°C° 1,1 mm 1 m/s 726 mmHg 98%
    06:00 +24°C° 1,1 mm 1 m/s 726 mmHg 98%
    07:00 +25°C° 1,1 mm 1 m/s 726 mmHg 98%
    08:00 +25°C° 0,6 mm 1 m/s 727 mmHg 96%
    09:00 +26°C° 0,6 mm 1 m/s 727 mmHg 95%
    10:00 +26°C° 0,6 mm 1 m/s 728 mmHg 93%
    11:00 +27°C° 0,5 mm 1 m/s 728 mmHg 91%
    12:00 +27°C° 0,5 mm 1 m/s 727 mmHg 89%
    13:00 +28°C° 0,5 mm 1 m/s 727 mmHg 87%
    14:00 +28°C° 0,6 mm 1 m/s 727 mmHg 88%
    15:00 +27°C° 0,6 mm 1 m/s 726 mmHg 90%
    16:00 +27°C° 0,6 mm 1 m/s 726 mmHg 91%
    17:00 +27°C° 0,3 mm 1 m/s 726 mmHg 92%
    18:00 +26°C° 0,3 mm 1 m/s 727 mmHg 93%
    19:00 +26°C° 0,3 mm 1 m/s 727 mmHg 94%
    20:00 +26°C° 0,2 mm 1 m/s 727 mmHg 94%
    21:00 +25°C° 0,2 mm 1 m/s 728 mmHg 95%
    22:00 +25°C° 0,2 mm 1 m/s 728 mmHg 95%
    23:00 +25°C° 0,1 mm 1 m/s 728 mmHg 96%
    Voir plus